TimeCDT,TemperatureF,Dew PointF,Humidity,Sea Level PressureIn,VisibilityMPH,Wind Direction,Wind SpeedMPH,Gust SpeedMPH,PrecipitationIn,Events,Conditions,WindDirDegrees,DateUTC
12:54 AM,66.0,55.0,68,30.01,10.0,SSW,3.5,-,N/A,,Clear,200,2012-09-21 05:54:00
1:54 AM,64.9,53.1,65,30.01,10.0,Calm,Calm,-,N/A,,Clear,0,2012-09-21 06:54:00
2:54 AM,64.0,53.1,67,30.00,10.0,SSW,3.5,-,N/A,,Clear,200,2012-09-21 07:54:00
3:54 AM,64.0,53.1,67,29.98,10.0,SSW,5.8,-,N/A,,Clear,210,2012-09-21 08:54:00
4:54 AM,64.0,52.0,65,29.99,10.0,SSW,6.9,-,N/A,,Clear,200,2012-09-21 09:54:00
5:54 AM,62.1,52.0,70,30.00,10.0,South,6.9,-,N/A,,Clear,180,2012-09-21 10:54:00
6:54 AM,62.1,51.1,67,30.01,10.0,South,9.2,-,N/A,,Mostly Cloudy,180,2012-09-21 11:54:00
7:54 AM,64.0,51.1,63,30.03,10.0,Variable,5.8,-,N/A,,Mostly Cloudy,0,2012-09-21 12:54:00
8:42 AM,64.4,53.6,68,30.12,10.0,NNW,6.9,-,N/A,Thunderstorm,Thunderstorm,330,2012-09-21 13:42:00
8:54 AM,64.9,53.1,65,30.12,10.0,WNW,5.8,-,N/A,Thunderstorm,Thunderstorm,290,2012-09-21 13:54:00
9:54 AM,64.0,57.9,80,30.07,10.0,SSE,6.9,-,0.05,Rain,Light Rain,150,2012-09-21 14:54:00
10:54 AM,66.0,59.0,78,30.08,10.0,South,5.8,-,0.01,,Overcast,180,2012-09-21 15:54:00
11:54 AM,68.0,60.1,76,29.99,10.0,SSE,16.1,-,0.00,,Overcast,160,2012-09-21 16:54:00
12:54 PM,75.0,59.0,57,29.96,10.0,SSW,11.5,20.7,0.00,,Mostly Cloudy,210,2012-09-21 17:54:00
1:54 PM,80.1,55.9,43,29.95,10.0,SSW,13.8,20.7,N/A,,Clear,210,2012-09-21 18:54:00
2:54 PM,81.0,57.0,44,29.93,10.0,SW,11.5,19.6,N/A,,Partly Cloudy,220,2012-09-21 19:54:00
3:54 PM,82.0,55.9,41,29.91,10.0,SSW,17.3,21.9,N/A,,Partly Cloudy,200,2012-09-21 20:54:00
4:54 PM,82.0,55.0,39,29.90,10.0,SSW,12.7,-,N/A,,Scattered Clouds,210,2012-09-21 21:54:00
5:54 PM,80.1,51.1,36,29.89,10.0,South,16.1,20.7,N/A,,Mostly Cloudy,190,2012-09-21 22:54:00
6:54 PM,78.1,52.0,40,29.89,10.0,SSW,10.4,-,N/A,,Scattered Clouds,200,2012-09-21 23:54:00
7:54 PM,73.9,53.1,48,29.91,10.0,SSW,6.9,-,N/A,,Partly Cloudy,210,2012-09-22 00:54:00
8:54 PM,72.0,54.0,53,29.91,10.0,SSW,5.8,-,N/A,,Partly Cloudy,210,2012-09-22 01:54:00
9:54 PM,70.0,55.0,59,29.92,10.0,SSW,5.8,-,N/A,,Partly Cloudy,210,2012-09-22 02:54:00
10:54 PM,72.0,55.9,57,29.93,10.0,SW,9.2,-,N/A,,Clear,220,2012-09-22 03:54:00
11:54 PM,70.0,55.9,61,29.93,10.0,SSW,6.9,-,N/A,,Clear,210,2012-09-22 04:54:00